Location: Columbus, NC
(35.2263°N, 82.1543°W)
Time: 22:30:52
(UTC-04:00)

Hubble Space Telescope - Visible Passes

Search period start: 07 June 2026 00:00
Search period end: 17 June 2026 00:00
Orbit: 473 x 475 km, 28.5° (Epoch: 7 June)

Date Brightness Start Highest point End Pass type
(mag) Time Alt. Az. Time Alt. Az. Time Alt. Az.
7 Jun 2.2 22:11:31 10° SW 22:13:28 19° S 22:13:28 19° S visible
8 Jun 1.9 21:39:47 10° SW 21:42:37 21° SSE 21:43:58 17° SE visible
9 Jun 2.0 21:08:02 10° SW 21:10:52 20° SSE 21:13:42 10° ESE visible
9 Jun 2.4 22:46:53 10° WSW 22:48:17 19° SW 22:48:17 19° SW visible
10 Jun 1.5 22:15:07 10° WSW 22:18:22 28° S 22:18:26 28° S visible
11 Jun 1.6 21:43:20 10° WSW 21:46:36 28° S 21:48:27 19° SE visible
12 Jun 1.6 21:11:32 10° WSW 21:14:48 28° S 21:18:03 10° ESE visible
12 Jun 2.7 22:51:12 10° WSW 22:52:22 16° SW 22:52:22 16° SW visible
13 Jun 2.0 22:19:23 10° WSW 22:22:13 21° SSW 22:22:13 21° SSW visible
14 Jun 2.1 21:47:33 10° WSW 21:50:27 21° SSW 21:52:03 16° SSE visible
15 Jun 2.1 21:15:43 10° WSW 21:18:38 21° SSW 21:21:32 10° SE visible
